Time,TemperatureF,DewpointF,PressureIn,WindDirection,WindDirectionDegrees,WindSpeedMPH,WindSpeedGustMPH,Humidity,HourlyPrecipIn,Conditions,Clouds,dailyrainin,SoftwareType,DateUTC
2013-10-23 00:03:00,41.2,40.7,29.82,NW,317,0.0,0.0,98,0.00,,,0.00,WUHU216DAVISWMX,2013-10-23 04:03:00,
2013-10-23 00:08:00,41.1,40.3,29.82,NW,317,0.0,0.0,97,0.00,,,0.00,WUHU216DAVISWMX,2013-10-23 04:08:00,
2013-10-23 00:13:00,41.0,40.5,29.82,NW,317,0.0,0.0,98,0.00,,,0.00,WUHU216DAVISWMX,2013-10-23 04:13:00,
2013-10-23 00:18:00,40.7,40.2,29.82,NW,317,0.0,0.0,98,0.00,,,0.00,WUHU216DAVISWMX,2013-10-23 04:18:00,
2013-10-23 00:23:00,40.7,40.2,29.81,NW,317,0.0,0.0,98,0.00,,,0.00,WUHU216DAVISWMX,2013-10-23 04:23:00,
2013-10-23 00:28:00,40.5,40.0,29.81,NW,317,0.0,0.0,98,0.00,,,0.00,WUHU216DAVISWMX,2013-10-23 04:28:00,
2013-10-23 00:33:00,40.3,39.5,29.81,NW,317,0.0,0.0,97,0.00,,,0.00,WUHU216DAVISWMX,2013-10-23 04:33:00,
2013-10-23 00:38:00,40.1,39.6,29.81,NW,317,0.0,0.0,98,0.00,,,0.00,WUHU216DAVISWMX,2013-10-23 04:38:00,
2013-10-23 00:43:00,40.0,39.5,29.81,NW,317,0.0,0.0,98,0.00,,,0.00,WUHU216DAVISWMX,2013-10-23 04:43:00,
2013-10-23 00:48:00,39.9,39.6,29.81,NW,317,0.0,0.0,99,0.00,,,0.00,WUHU216DAVISWMX,2013-10-23 04:48:00,
2013-10-23 00:53:00,39.7,39.2,29.81,NW,317,0.0,0.0,98,0.00,,,0.00,WUHU216DAVISWMX,2013-10-23 04:53:00,
2013-10-23 00:58:00,39.7,39.2,29.82,NW,317,0.0,0.0,98,0.00,,,0.00,WUHU216DAVISWMX,2013-10-23 04:58:00,
2013-10-23 01:03:00,39.4,39.1,29.82,NW,317,0.0,0.0,99,0.00,,,0.00,WUHU216DAVISWMX,2013-10-23 05:03:00,
2013-10-23 01:08:00,39.4,39.1,29.82,NW,317,0.0,0.0,99,0.00,,,0.00,WUHU216DAVISWMX,2013-10-23 05:08:00,
2013-10-23 01:13:00,39.3,39.0,29.82,NW,317,0.0,0.0,99,0.00,,,0.00,WUHU216DAVISWMX,2013-10-23 05:13:00,
2013-10-23 01:18:00,39.2,38.9,29.82,NW,317,0.0,0.0,99,0.00,,,0.00,WUHU216DAVISWMX,2013-10-23 05:18:00,
2013-10-23 01:23:00,39.2,38.9,29.82,NW,317,0.0,0.0,99,0.00,,,0.00,WUHU216DAVISWMX,2013-10-23 05:23:00,
2013-10-23 01:28:00,39.1,38.8,29.82,NW,317,0.0,0.0,99,0.00,,,0.00,WUHU216DAVISWMX,2013-10-23 05:28:00,
2013-10-23 01:33:00,38.9,38.6,29.83,NW,317,0.0,0.0,99,0.00,,,0.00,WUHU216DAVISWMX,2013-10-23 05:33:00,
2013-10-23 01:38:00,38.7,38.2,29.82,NW,317,0.0,0.0,98,0.00,,,0.00,WUHU216DAVISWMX,2013-10-23 05:38:00,
2013-10-23 01:43:00,38.6,38.3,29.83,NW,317,0.0,0.0,99,0.00,,,0.00,WUHU216DAVISWMX,2013-10-23 05:43:00,
2013-10-23 01:48:00,38.4,38.1,29.83,NW,317,0.0,0.0,99,0.00,,,0.00,WUHU216DAVISWMX,2013-10-23 05:48:00,
2013-10-23 01:53:00,38.3,38.0,29.83,NW,317,0.0,0.0,99,0.00,,,0.00,WUHU216DAVISWMX,2013-10-23 05:53:00,
2013-10-23 01:58:00,38.3,38.0,29.83,NW,317,0.0,0.0,99,0.00,,,0.00,WUHU216DAVISWMX,2013-10-23 05:58:00,
2013-10-23 02:03:00,38.3,38.0,29.83,NW,317,0.0,0.0,99,0.00,,,0.00,WUHU216DAVISWMX,2013-10-23 06:03:00,
2013-10-23 02:08:00,38.2,37.9,29.83,NW,317,0.0,0.0,99,0.00,,,0.00,WUHU216DAVISWMX,2013-10-23 06:08:00,
2013-10-23 02:13:00,38.1,37.8,29.83,NW,317,0.0,0.0,99,0.00,,,0.00,WUHU216DAVISWMX,2013-10-23 06:13:00,
2013-10-23 02:19:00,38.0,38.0,29.83,NW,317,0.0,0.0,100,0.00,,,0.00,WUHU216DAVISWMX,2013-10-23 06:19:00,
2013-10-23 02:24:00,38.0,38.0,29.83,NW,317,0.0,0.0,100,0.00,,,0.00,WUHU216DAVISWMX,2013-10-23 06:24:00,
2013-10-23 02:29:00,37.8,37.8,29.83,NW,317,0.0,0.0,100,0.00,,,0.00,WUHU216DAVISWMX,2013-10-23 06:29:00,
2013-10-23 02:34:00,37.9,37.9,29.83,NW,317,0.0,0.0,100,0.00,,,0.00,WUHU216DAVISWMX,2013-10-23 06:34:00,
2013-10-23 02:39:00,37.7,37.7,29.83,NW,317,0.0,0.0,100,0.00,,,0.00,WUHU216DAVISWMX,2013-10-23 06:39:00,
2013-10-23 02:44:00,37.6,37.6,29.83,NW,317,0.0,0.0,100,0.00,,,0.00,WUHU216DAVISWMX,2013-10-23 06:44:00,
2013-10-23 02:49:00,37.6,37.6,29.83,NW,317,0.0,0.0,100,0.00,,,0.00,WUHU216DAVISWMX,2013-10-23 06:49:00,
2013-10-23 02:54:00,37.5,37.5,29.82,NW,317,0.0,0.0,100,0.00,,,0.00,WUHU216DAVISWMX,2013-10-23 06:54:00,
2013-10-23 02:59:00,37.5,37.5,29.83,NW,317,0.0,0.0,100,0.00,,,0.00,WUHU216DAVISWMX,2013-10-23 06:59:00,
2013-10-23 03:04:00,37.2,37.2,29.83,NW,317,0.0,0.0,100,0.00,,,0.00,WUHU216DAVISWMX,2013-10-23 07:04:00,
2013-10-23 03:09:00,37.0,37.0,29.83,NW,317,0.0,0.0,100,0.00,,,0.00,WUHU216DAVISWMX,2013-10-23 07:09:00,
2013-10-23 03:14:00,36.8,36.8,29.82,NW,317,0.0,0.0,100,0.00,,,0.00,WUHU216DAVISWMX,2013-10-23 07:14:00,
2013-10-23 03:19:00,36.8,36.8,29.83,NW,317,0.0,0.0,100,0.00,,,0.00,WUHU216DAVISWMX,2013-10-23 07:19:00,
2013-10-23 03:24:00,36.5,36.5,29.82,NW,317,0.0,0.0,100,0.00,,,0.00,WUHU216DAVISWMX,2013-10-23 07:24:00,
2013-10-23 03:29:00,36.3,36.3,29.82,NW,317,0.0,0.0,100,0.00,,,0.00,WUHU216DAVISWMX,2013-10-23 07:29:00,
2013-10-23 03:34:00,36.3,36.3,29.82,NW,317,0.0,0.0,100,0.00,,,0.00,WUHU216DAVISWMX,2013-10-23 07:34:00,
2013-10-23 03:39:00,36.2,36.2,29.82,NW,317,0.0,0.0,100,0.00,,,0.00,WUHU216DAVISWMX,2013-10-23 07:39:00,
2013-10-23 03:44:00,36.1,36.1,29.82,NW,317,0.0,0.0,100,0.00,,,0.00,WUHU216DAVISWMX,2013-10-23 07:44:00,
2013-10-23 03:49:00,36.0,36.0,29.82,NW,317,0.0,0.0,100,0.00,,,0.00,WUHU216DAVISWMX,2013-10-23 07:49:00,
2013-10-23 03:54:00,35.9,35.9,29.82,NW,317,0.0,0.0,100,0.00,,,0.00,WUHU216DAVISWMX,2013-10-23 07:54:00,
2013-10-23 03:59:00,35.8,35.8,29.82,NW,317,0.0,0.0,100,0.00,,,0.00,WUHU216DAVISWMX,2013-10-23 07:59:00,
2013-10-23 04:04:00,35.8,35.8,29.82,NW,317,0.0,0.0,100,0.00,,,0.00,WUHU216DAVISWMX,2013-10-23 08:04:00,
2013-10-23 04:09:00,35.7,35.7,29.82,NW,317,0.0,0.0,100,0.00,,,0.00,WUHU216DAVISWMX,2013-10-23 08:09:00,
2013-10-23 04:14:00,35.4,35.4,29.81,NW,317,0.0,0.0,100,0.00,,,0.00,WUHU216DAVISWMX,2013-10-23 08:14:00,
2013-10-23 04:19:00,35.3,35.3,29.81,NW,317,0.0,0.0,100,0.00,,,0.00,WUHU216DAVISWMX,2013-10-23 08:19:00,
2013-10-23 04:24:00,35.2,35.2,29.81,NW,317,0.0,0.0,100,0.00,,,0.00,WUHU216DAVISWMX,2013-10-23 08:24:00,
2013-10-23 04:29:00,35.1,35.1,29.81,NW,317,0.0,0.0,100,0.00,,,0.00,WUHU216DAVISWMX,2013-10-23 08:29:00,
2013-10-23 04:34:00,35.2,35.2,29.81,NW,317,0.0,0.0,100,0.00,,,0.00,WUHU216DAVISWMX,2013-10-23 08:34:00,
2013-10-23 04:39:00,35.1,35.1,29.81,NW,317,0.0,0.0,100,0.00,,,0.00,WUHU216DAVISWMX,2013-10-23 08:39:00,
2013-10-23 04:44:00,35.0,35.0,29.81,NW,317,0.0,0.0,100,0.00,,,0.00,WUHU216DAVISWMX,2013-10-23 08:44:00,
2013-10-23 04:49:00,34.9,34.9,29.81,NW,317,0.0,0.0,100,0.00,,,0.00,WUHU216DAVISWMX,2013-10-23 08:49:00,
2013-10-23 04:54:00,34.8,34.8,29.81,NW,317,0.0,0.0,100,0.00,,,0.00,WUHU216DAVISWMX,2013-10-23 08:54:00,
2013-10-23 04:59:00,34.6,34.6,29.80,NW,317,0.0,0.0,100,0.00,,,0.00,WUHU216DAVISWMX,2013-10-23 08:59:00,
2013-10-23 05:04:00,34.6,34.6,29.80,NW,317,0.0,0.0,100,0.00,,,0.00,WUHU216DAVISWMX,2013-10-23 09:04:00,
2013-10-23 05:09:00,34.6,34.6,29.80,NW,317,0.0,0.0,100,0.00,,,0.00,WUHU216DAVISWMX,2013-10-23 09:09:00,
2013-10-23 05:14:00,34.4,34.4,29.80,NW,317,0.0,0.0,100,0.00,,,0.00,WUHU216DAVISWMX,2013-10-23 09:14:00,
2013-10-23 05:19:00,34.3,34.3,29.80,NW,317,0.0,0.0,100,0.00,,,0.00,WUHU216DAVISWMX,2013-10-23 09:19:00,
2013-10-23 05:24:00,34.3,34.3,29.80,NW,317,0.0,0.0,100,0.00,,,0.00,WUHU216DAVISWMX,2013-10-23 09:24:00,
2013-10-23 05:29:00,34.3,34.3,29.81,NW,317,0.0,0.0,100,0.00,,,0.00,WUHU216DAVISWMX,2013-10-23 09:29:00,
2013-10-23 05:34:00,34.2,34.2,29.81,NW,317,0.0,0.0,100,0.00,,,0.00,WUHU216DAVISWMX,2013-10-23 09:34:00,
2013-10-23 05:39:00,34.2,34.2,29.81,NW,317,0.0,0.0,100,0.00,,,0.00,WUHU216DAVISWMX,2013-10-23 09:39:00,
2013-10-23 05:44:00,34.2,34.2,29.81,NW,317,0.0,0.0,100,0.00,,,0.00,WUHU216DAVISWMX,2013-10-23 09:44:00,
2013-10-23 05:49:00,34.1,34.1,29.81,NW,317,0.0,0.0,100,0.00,,,0.00,WUHU216DAVISWMX,2013-10-23 09:49:00,
2013-10-23 05:54:00,34.1,34.1,29.80,NW,317,0.0,0.0,100,0.00,,,0.00,WUHU216DAVISWMX,2013-10-23 09:54:00,
2013-10-23 05:59:00,34.1,34.1,29.80,NW,317,0.0,0.0,100,0.00,,,0.00,WUHU216DAVISWMX,2013-10-23 09:59:00,
2013-10-23 06:04:00,33.8,33.8,29.80,NW,317,0.0,0.0,100,0.00,,,0.00,WUHU216DAVISWMX,2013-10-23 10:04:00,
2013-10-23 06:09:00,33.7,33.7,29.80,NW,317,0.0,0.0,100,0.00,,,0.00,WUHU216DAVISWMX,2013-10-23 10:09:00,
2013-10-23 06:14:00,33.7,33.7,29.80,NW,317,0.0,0.0,100,0.00,,,0.00,WUHU216DAVISWMX,2013-10-23 10:14:00,
2013-10-23 06:19:00,33.6,33.6,29.80,NW,317,0.0,0.0,100,0.00,,,0.00,WUHU216DAVISWMX,2013-10-23 10:19:00,
2013-10-23 06:24:00,33.5,33.5,29.80,NW,317,0.0,0.0,100,0.00,,,0.00,WUHU216DAVISWMX,2013-10-23 10:24:00,
2013-10-23 06:29:00,33.4,33.4,29.79,NW,317,0.0,0.0,100,0.00,,,0.00,WUHU216DAVISWMX,2013-10-23 10:29:00,
2013-10-23 06:34:00,33.3,33.3,29.79,NW,317,0.0,0.0,100,0.00,,,0.00,WUHU216DAVISWMX,2013-10-23 10:34:00,
2013-10-23 06:39:00,33.2,33.2,29.79,NW,317,0.0,0.0,100,0.00,,,0.00,WUHU216DAVISWMX,2013-10-23 10:39:00,
2013-10-23 06:44:00,33.2,33.2,29.79,NW,317,0.0,0.0,100,0.00,,,0.00,WUHU216DAVISWMX,2013-10-23 10:44:00,
2013-10-23 06:49:00,33.1,33.1,29.79,NW,317,0.0,0.0,100,0.00,,,0.00,WUHU216DAVISWMX,2013-10-23 10:49:00,
2013-10-23 06:54:00,33.1,33.1,29.79,NW,317,0.0,0.0,100,0.00,,,0.00,WUHU216DAVISWMX,2013-10-23 10:54:00,
2013-10-23 06:59:00,33.1,33.1,29.79,NW,317,0.0,0.0,100,0.00,,,0.00,WUHU216DAVISWMX,2013-10-23 10:59:00,
2013-10-23 07:04:00,33.1,33.1,29.79,NW,317,0.0,0.0,100,0.00,,,0.00,WUHU216DAVISWMX,2013-10-23 11:04:00,
2013-10-23 07:09:00,33.0,33.0,29.79,NW,317,0.0,0.0,100,0.00,,,0.00,WUHU216DAVISWMX,2013-10-23 11:09:00,
2013-10-23 07:14:00,32.9,32.9,29.79,NW,317,0.0,0.0,100,0.00,,,0.00,WUHU216DAVISWMX,2013-10-23 11:14:00,
2013-10-23 07:19:00,32.9,32.9,29.79,NW,317,0.0,0.0,100,0.00,,,0.00,WUHU216DAVISWMX,2013-10-23 11:19:00,
2013-10-23 07:24:00,33.0,33.0,29.79,NW,317,0.0,0.0,100,0.00,,,0.00,WUHU216DAVISWMX,2013-10-23 11:24:00,
2013-10-23 07:29:00,32.9,32.9,29.79,NW,317,0.0,0.0,100,0.00,,,0.00,WUHU216DAVISWMX,2013-10-23 11:29:00,
2013-10-23 07:34:00,33.0,33.0,29.80,NW,317,0.0,0.0,100,0.00,,,0.00,WUHU216DAVISWMX,2013-10-23 11:34:00,
2013-10-23 07:39:00,32.9,32.9,29.80,NW,317,0.0,0.0,100,0.00,,,0.00,WUHU216DAVISWMX,2013-10-23 11:39:00,
2013-10-23 07:44:00,32.9,32.9,29.80,NW,317,0.0,0.0,100,0.00,,,0.00,WUHU216DAVISWMX,2013-10-23 11:44:00,
2013-10-23 07:49:00,32.8,32.8,29.80,NW,317,0.0,0.0,100,0.00,,,0.00,WUHU216DAVISWMX,2013-10-23 11:49:00,
2013-10-23 07:54:00,32.9,32.9,29.80,NW,317,0.0,0.0,100,0.00,,,0.00,WUHU216DAVISWMX,2013-10-23 11:54:00,
2013-10-23 07:59:00,33.0,33.0,29.80,NW,317,0.0,0.0,100,0.00,,,0.00,WUHU216DAVISWMX,2013-10-23 11:59:00,
2013-10-23 08:04:00,33.0,33.0,29.80,NW,317,0.0,0.0,100,0.00,,,0.00,WUHU216DAVISWMX,2013-10-23 12:04:00,
2013-10-23 08:09:00,33.1,33.1,29.80,NW,317,0.0,0.0,100,0.00,,,0.00,WUHU216DAVISWMX,2013-10-23 12:09:00,
2013-10-23 08:14:00,33.1,33.1,29.81,NW,317,0.0,0.0,100,0.00,,,0.00,WUHU216DAVISWMX,2013-10-23 12:14:00,
2013-10-23 08:19:00,33.3,33.3,29.81,NW,317,0.0,0.0,100,0.00,,,0.00,WUHU216DAVISWMX,2013-10-23 12:19:00,
2013-10-23 08:24:00,33.6,33.6,29.81,NW,317,0.0,0.0,100,0.00,,,0.00,WUHU216DAVISWMX,2013-10-23 12:24:00,
2013-10-23 08:29:00,33.8,33.8,29.81,NW,317,0.0,0.0,100,0.00,,,0.00,WUHU216DAVISWMX,2013-10-23 12:29:00,
2013-10-23 08:34:00,34.3,34.3,29.81,NW,317,0.0,0.0,100,0.00,,,0.00,WUHU216DAVISWMX,2013-10-23 12:34:00,
2013-10-23 08:39:00,34.8,34.8,29.80,NW,317,0.0,0.0,100,0.00,,,0.00,WUHU216DAVISWMX,2013-10-23 12:39:00,
2013-10-23 08:44:00,35.4,35.4,29.80,NW,317,0.0,0.0,100,0.00,,,0.00,WUHU216DAVISWMX,2013-10-23 12:44:00,
2013-10-23 08:49:00,36.0,36.0,29.80,NW,317,0.0,0.0,100,0.00,,,0.00,WUHU216DAVISWMX,2013-10-23 12:49:00,
2013-10-23 08:54:00,36.4,36.4,29.80,NW,317,0.0,0.0,100,0.00,,,0.00,WUHU216DAVISWMX,2013-10-23 12:54:00,
2013-10-23 08:59:00,36.9,36.9,29.80,NW,317,0.0,0.0,100,0.00,,,0.00,WUHU216DAVISWMX,2013-10-23 12:59:00,
2013-10-23 09:04:00,37.5,37.5,29.80,NW,317,0.0,0.0,100,0.00,,,0.00,WUHU216DAVISWMX,2013-10-23 13:04:00,
2013-10-23 09:09:00,37.9,37.9,29.80,NW,317,0.0,0.0,100,0.00,,,0.00,WUHU216DAVISWMX,2013-10-23 13:09:00,
2013-10-23 09:14:00,38.2,38.2,29.80,NW,317,0.0,0.0,100,0.00,,,0.00,WUHU216DAVISWMX,2013-10-23 13:14:00,
2013-10-23 09:19:00,38.6,38.6,29.80,NW,317,0.0,0.0,100,0.00,,,0.00,WUHU216DAVISWMX,2013-10-23 13:19:00,
2013-10-23 09:29:00,39.3,39.3,29.80,NW,317,0.0,0.0,100,0.00,,,0.00,WUHU216DAVISWMX,2013-10-23 13:29:00,
2013-10-23 09:37:00,39.7,39.7,29.79,NW,317,0.0,0.0,100,0.00,,,0.00,WUHU216DAVISWMX,2013-10-23 13:37:00,
2013-10-23 09:45:00,40.3,40.3,29.79,NW,317,0.0,0.0,100,0.00,,,0.00,WUHU216DAVISWMX,2013-10-23 13:45:00,
2013-10-23 09:59:00,41.4,41.4,29.78,NW,317,0.0,0.0,100,0.00,,,0.00,WUHU216DAVISWMX,2013-10-23 13:59:00,
2013-10-23 10:07:00,43.2,43.2,29.78,NW,317,0.0,0.0,100,0.00,,,0.00,WUHU216DAVISWMX,2013-10-23 14:07:00,
2013-10-23 10:12:00,43.6,43.3,29.78,NW,317,0.0,0.0,99,0.00,,,0.00,WUHU216DAVISWMX,2013-10-23 14:12:00,
2013-10-23 10:17:00,43.9,43.3,29.78,NW,317,0.0,0.0,98,0.00,,,0.00,WUHU216DAVISWMX,2013-10-23 14:17:00,
2013-10-23 10:22:00,44.1,43.0,29.78,NW,317,0.0,0.0,96,0.00,,,0.00,WUHU216DAVISWMX,2013-10-23 14:22:00,
2013-10-23 10:27:00,44.5,43.4,29.77,NW,317,0.0,0.0,96,0.00,,,0.00,WUHU216DAVISWMX,2013-10-23 14:27:00,
2013-10-23 10:32:00,44.8,43.4,29.77,NW,317,0.0,0.0,95,0.00,,,0.00,WUHU216DAVISWMX,2013-10-23 14:32:00,
2013-10-23 10:37:00,45.4,43.2,29.77,NW,317,0.0,0.0,92,0.00,,,0.00,WUHU216DAVISWMX,2013-10-23 14:37:00,
2013-10-23 10:42:00,45.5,43.0,29.77,NW,317,0.0,0.0,91,0.00,,,0.00,WUHU216DAVISWMX,2013-10-23 14:42:00,
2013-10-23 10:47:00,45.8,42.4,29.77,NW,317,0.0,0.0,88,0.00,,,0.00,WUHU216DAVISWMX,2013-10-23 14:47:00,
2013-10-23 10:52:00,46.0,42.6,29.77,NW,317,0.0,0.0,88,0.00,,,0.00,WUHU216DAVISWMX,2013-10-23 14:52:00,
2013-10-23 10:57:00,46.2,42.2,29.77,NW,317,0.0,0.0,86,0.00,,,0.00,WUHU216DAVISWMX,2013-10-23 14:57:00,
2013-10-23 11:02:00,46.4,42.1,29.77,NW,317,0.0,0.0,85,0.00,,,0.00,WUHU216DAVISWMX,2013-10-23 15:02:00,
2013-10-23 11:07:00,46.6,42.3,29.77,NW,317,0.0,0.0,85,0.00,,,0.00,WUHU216DAVISWMX,2013-10-23 15:07:00,
2013-10-23 11:12:00,46.7,41.8,29.76,NW,317,0.0,0.0,83,0.00,,,0.00,WUHU216DAVISWMX,2013-10-23 15:12:00,
2013-10-23 11:17:00,46.9,42.0,29.76,NW,317,0.0,0.0,83,0.00,,,0.00,WUHU216DAVISWMX,2013-10-23 15:17:00,
2013-10-23 11:22:00,47.1,42.2,29.76,NW,306,0.0,0.0,83,0.00,,,0.00,WUHU216DAVISWMX,2013-10-23 15:22:00,
2013-10-23 11:27:00,47.2,42.3,29.76,WSW,245,0.0,0.0,83,0.00,,,0.00,WUHU216DAVISWMX,2013-10-23 15:27:00,
2013-10-23 11:32:00,47.4,42.5,29.76,WSW,245,0.0,0.0,83,0.00,,,0.00,WUHU216DAVISWMX,2013-10-23 15:32:00,
2013-10-23 11:37:00,47.5,42.0,29.76,WSW,245,0.0,0.0,81,0.00,,,0.00,WUHU216DAVISWMX,2013-10-23 15:37:00,
2013-10-23 11:42:00,47.6,42.1,29.76,WSW,245,0.0,0.0,81,0.00,,,0.00,WUHU216DAVISWMX,2013-10-23 15:42:00,
2013-10-23 11:47:00,47.7,41.9,29.75,WSW,245,0.0,0.0,80,0.00,,,0.00,WUHU216DAVISWMX,2013-10-23 15:47:00,
2013-10-23 11:52:00,47.9,41.7,29.74,NNW,336,0.0,0.0,79,0.00,,,0.00,WUHU216DAVISWMX,2013-10-23 15:52:00,
2013-10-23 11:57:00,48.1,42.3,29.74,NNW,336,0.0,0.0,80,0.00,,,0.00,WUHU216DAVISWMX,2013-10-23 15:57:00,
2013-10-23 12:02:00,48.2,41.7,29.74,NNW,336,0.0,0.0,78,0.00,,,0.00,WUHU216DAVISWMX,2013-10-23 16:02:00,
2013-10-23 12:07:00,48.3,41.8,29.73,NNW,336,0.0,0.0,78,0.00,,,0.00,WUHU216DAVISWMX,2013-10-23 16:07:00,
2013-10-23 12:12:00,48.4,41.9,29.74,NNW,336,0.0,0.0,78,0.00,,,0.00,WUHU216DAVISWMX,2013-10-23 16:12:00,
2013-10-23 12:17:00,48.6,42.1,29.73,NNW,336,0.0,0.0,78,0.00,,,0.00,WUHU216DAVISWMX,2013-10-23 16:17:00,
2013-10-23 12:22:00,48.5,42.0,29.73,NNW,336,0.0,0.0,78,0.00,,,0.00,WUHU216DAVISWMX,2013-10-23 16:22:00,
2013-10-23 12:32:00,48.8,42.0,29.73,WSW,247,0.0,0.0,77,0.00,,,0.00,WUHU216DAVISWMX,2013-10-23 16:32:00,
2013-10-23 12:37:00,48.9,42.1,29.73,WSW,242,0.0,0.0,77,0.00,,,0.00,WUHU216DAVISWMX,2013-10-23 16:37:00,
2013-10-23 12:42:00,48.9,42.1,29.73,WSW,241,0.0,0.0,77,0.00,,,0.00,WUHU216DAVISWMX,2013-10-23 16:42:00,
2013-10-23 12:47:00,48.9,42.1,29.72,SSW,211,0.0,0.0,77,0.00,,,0.00,WUHU216DAVISWMX,2013-10-23 16:47:00,
2013-10-23 12:52:00,49.0,42.5,29.72,SSW,210,0.0,0.0,78,0.00,,,0.00,WUHU216DAVISWMX,2013-10-23 16:52:00,
2013-10-23 12:57:00,49.2,43.0,29.71,SSW,211,0.0,0.0,79,0.00,,,0.00,WUHU216DAVISWMX,2013-10-23 16:57:00,
2013-10-23 13:02:00,49.3,42.8,29.71,SSW,207,0.0,0.0,78,0.00,,,0.00,WUHU216DAVISWMX,2013-10-23 17:02:00,
2013-10-23 13:07:00,49.4,42.2,29.71,WSW,242,0.0,0.0,76,0.00,,,0.00,WUHU216DAVISWMX,2013-10-23 17:07:00,
2013-10-23 13:12:00,49.5,42.6,29.71,SW,235,0.0,0.0,77,0.00,,,0.00,WUHU216DAVISWMX,2013-10-23 17:12:00,
2013-10-23 13:17:00,49.5,42.6,29.70,SW,235,0.0,0.0,77,0.00,,,0.00,WUHU216DAVISWMX,2013-10-23 17:17:00,
2013-10-23 13:22:00,49.6,42.7,29.70,SW,230,0.0,0.0,77,0.00,,,0.00,WUHU216DAVISWMX,2013-10-23 17:22:00,
2013-10-23 13:28:00,49.6,43.1,29.69,SW,226,0.0,0.0,78,0.00,,,0.00,WUHU216DAVISWMX,2013-10-23 17:28:00,
2013-10-23 13:33:00,49.6,42.7,29.69,SW,226,0.0,0.0,77,0.00,,,0.00,WUHU216DAVISWMX,2013-10-23 17:33:00,
2013-10-23 13:38:00,49.6,43.1,29.68,SW,226,0.0,0.0,78,0.00,,,0.00,WUHU216DAVISWMX,2013-10-23 17:38:00,
2013-10-23 13:43:00,49.6,42.4,29.67,ESE,115,0.0,0.0,76,0.00,,,0.00,WUHU216DAVISWMX,2013-10-23 17:43:00,
2013-10-23 13:48:00,49.7,42.5,29.67,ESE,115,0.0,0.0,76,0.00,,,0.00,WUHU216DAVISWMX,2013-10-23 17:48:00,
2013-10-23 13:53:00,49.8,42.6,29.67,ESE,115,0.0,0.0,76,0.00,,,0.00,WUHU216DAVISWMX,2013-10-23 17:53:00,
2013-10-23 13:58:00,49.9,42.4,29.67,ESE,117,0.0,0.0,75,0.00,,,0.00,WUHU216DAVISWMX,2013-10-23 17:58:00,
2013-10-23 14:03:00,50.1,42.6,29.66,WSW,250,0.0,0.0,75,0.00,,,0.00,WUHU216DAVISWMX,2013-10-23 18:03:00,
2013-10-23 14:08:00,50.2,42.3,29.66,WSW,250,0.0,0.0,74,0.00,,,0.00,WUHU216DAVISWMX,2013-10-23 18:08:00,
2013-10-23 14:13:00,50.2,42.7,29.66,ESE,122,0.0,0.0,75,0.00,,,0.00,WUHU216DAVISWMX,2013-10-23 18:13:00,
2013-10-23 14:18:00,50.2,42.3,29.66,ESE,119,0.0,0.0,74,0.00,,,0.00,WUHU216DAVISWMX,2013-10-23 18:18:00,
2013-10-23 14:23:00,50.2,42.3,29.65,ESE,119,0.0,0.0,74,0.00,,,0.00,WUHU216DAVISWMX,2013-10-23 18:23:00,
2013-10-23 14:28:00,50.3,42.8,29.65,ESE,119,0.0,0.0,75,0.00,,,0.00,WUHU216DAVISWMX,2013-10-23 18:28:00,
2013-10-23 14:33:00,50.3,42.4,29.65,ESE,119,0.0,0.0,74,0.00,,,0.00,WUHU216DAVISWMX,2013-10-23 18:33:00,
2013-10-23 14:38:00,50.3,42.4,29.65,ESE,119,0.0,0.0,74,0.00,,,0.00,WUHU216DAVISWMX,2013-10-23 18:38:00,
2013-10-23 14:43:00,50.3,42.8,29.65,ESE,119,0.0,0.0,75,0.00,,,0.00,WUHU216DAVISWMX,2013-10-23 18:43:00,
2013-10-23 14:48:00,50.3,42.4,29.64,ESE,119,0.0,0.0,74,0.00,,,0.00,WUHU216DAVISWMX,2013-10-23 18:48:00,
2013-10-23 14:53:00,50.3,42.4,29.63,ESE,119,0.0,0.0,74,0.00,,,0.00,WUHU216DAVISWMX,2013-10-23 18:53:00,
2013-10-23 14:58:00,50.4,42.5,29.62,ESE,119,0.0,0.0,74,0.00,,,0.00,WUHU216DAVISWMX,2013-10-23 18:58:00,
2013-10-23 15:03:00,50.5,42.6,29.62,SSE,164,0.0,0.0,74,0.00,,,0.00,WUHU216DAVISWMX,2013-10-23 19:03:00,
2013-10-23 15:08:00,50.5,42.3,29.62,SSE,165,0.0,0.0,73,0.00,,,0.00,WUHU216DAVISWMX,2013-10-23 19:08:00,
2013-10-23 15:13:00,50.5,42.3,29.63,SSE,165,0.0,0.0,73,0.00,,,0.00,WUHU216DAVISWMX,2013-10-23 19:13:00,
2013-10-23 15:18:00,50.5,42.3,29.63,SSE,164,0.0,0.0,73,0.00,,,0.00,WUHU216DAVISWMX,2013-10-23 19:18:00,
2013-10-23 15:23:00,50.4,42.2,29.64,SSW,195,0.0,0.0,73,0.00,,,0.00,WUHU216DAVISWMX,2013-10-23 19:23:00,
2013-10-23 15:28:00,50.4,42.2,29.64,SSW,194,0.0,0.0,73,0.00,,,0.00,WUHU216DAVISWMX,2013-10-23 19:28:00,
2013-10-23 15:33:00,50.4,41.8,29.64,SSW,195,0.0,0.0,72,0.00,,,0.00,WUHU216DAVISWMX,2013-10-23 19:33:00,
2013-10-23 15:38:00,50.3,41.7,29.64,SSW,195,0.0,0.0,72,0.00,,,0.00,WUHU216DAVISWMX,2013-10-23 19:38:00,
2013-10-23 15:43:00,50.3,42.1,29.64,SSW,194,0.0,0.0,73,0.00,,,0.00,WUHU216DAVISWMX,2013-10-23 19:43:00,
2013-10-23 15:48:00,50.3,42.1,29.64,SSW,195,0.0,0.0,73,0.00,,,0.00,WUHU216DAVISWMX,2013-10-23 19:48:00,
2013-10-23 15:53:00,50.3,42.1,29.63,SSW,195,0.0,0.0,73,0.00,,,0.00,WUHU216DAVISWMX,2013-10-23 19:53:00,
2013-10-23 15:58:00,50.2,42.0,29.63,SSW,195,0.0,0.0,73,0.00,,,0.00,WUHU216DAVISWMX,2013-10-23 19:58:00,
2013-10-23 16:03:00,50.2,42.0,29.63,SSW,195,0.0,0.0,73,0.00,,,0.00,WUHU216DAVISWMX,2013-10-23 20:03:00,
2013-10-23 16:08:00,50.1,42.2,29.63,SSW,195,0.0,0.0,74,0.00,,,0.00,WUHU216DAVISWMX,2013-10-23 20:08:00,
2013-10-23 16:13:00,50.2,42.3,29.63,SSW,195,0.0,0.0,74,0.00,,,0.00,WUHU216DAVISWMX,2013-10-23 20:13:00,
2013-10-23 16:18:00,50.1,42.6,29.64,SSW,195,0.0,0.0,75,0.00,,,0.00,WUHU216DAVISWMX,2013-10-23 20:18:00,
2013-10-23 16:23:00,50.1,42.6,29.63,SSW,195,0.0,0.0,75,0.00,,,0.00,WUHU216DAVISWMX,2013-10-23 20:23:00,
2013-10-23 16:28:00,50.1,42.6,29.64,SSW,195,0.0,0.0,75,0.00,,,0.00,WUHU216DAVISWMX,2013-10-23 20:28:00,
2013-10-23 16:33:00,50.1,42.6,29.64,SSW,195,0.0,0.0,75,0.00,,,0.00,WUHU216DAVISWMX,2013-10-23 20:33:00,
2013-10-23 16:38:00,50.0,42.5,29.64,SSW,195,0.0,0.0,75,0.00,,,0.00,WUHU216DAVISWMX,2013-10-23 20:38:00,
2013-10-23 16:43:00,50.0,42.5,29.63,SSW,194,0.0,0.0,75,0.00,,,0.00,WUHU216DAVISWMX,2013-10-23 20:43:00,
2013-10-23 16:48:00,49.9,42.4,29.62,SSW,195,0.0,0.0,75,0.00,,,0.00,WUHU216DAVISWMX,2013-10-23 20:48:00,
2013-10-23 16:53:00,49.9,42.4,29.62,SSW,194,0.0,0.0,75,0.00,,,0.00,WUHU216DAVISWMX,2013-10-23 20:53:00,
2013-10-23 16:58:00,49.8,42.6,29.62,SSW,195,0.0,0.0,76,0.00,,,0.00,WUHU216DAVISWMX,2013-10-23 20:58:00,
2013-10-23 17:03:00,49.7,42.8,29.62,SSW,194,0.0,0.0,77,0.00,,,0.00,WUHU216DAVISWMX,2013-10-23 21:03:00,
2013-10-23 17:08:00,49.6,43.1,29.63,SSW,195,0.0,0.0,78,0.00,,,0.00,WUHU216DAVISWMX,2013-10-23 21:08:00,
2013-10-23 17:13:00,49.5,43.0,29.64,SSW,194,0.0,0.0,78,0.00,,,0.00,WUHU216DAVISWMX,2013-10-23 21:13:00,
2013-10-23 17:18:00,49.4,43.2,29.63,SSW,194,0.0,0.0,79,0.00,,,0.00,WUHU216DAVISWMX,2013-10-23 21:18:00,
2013-10-23 17:23:00,49.3,43.4,29.64,SSW,194,0.0,0.0,80,0.00,,,0.00,WUHU216DAVISWMX,2013-10-23 21:23:00,
2013-10-23 17:28:00,49.2,43.6,29.64,SSW,194,0.0,0.0,81,0.00,,,0.00,WUHU216DAVISWMX,2013-10-23 21:28:00,
2013-10-23 17:33:00,49.2,43.6,29.64,SSW,194,0.0,0.0,81,0.00,,,0.00,WUHU216DAVISWMX,2013-10-23 21:33:00,
2013-10-23 17:38:00,49.0,43.4,29.64,SSW,195,0.0,0.0,81,0.00,,,0.00,WUHU216DAVISWMX,2013-10-23 21:38:00,
2013-10-23 17:43:00,48.8,43.6,29.64,SSW,194,0.0,0.0,82,0.00,,,0.00,WUHU216DAVISWMX,2013-10-23 21:43:00,
2013-10-23 17:48:00,48.6,43.7,29.64,SSW,195,0.0,0.0,83,0.00,,,0.00,WUHU216DAVISWMX,2013-10-23 21:48:00,
2013-10-23 17:53:00,48.4,43.8,29.64,SSW,195,0.0,0.0,84,0.00,,,0.00,WUHU216DAVISWMX,2013-10-23 21:53:00,
2013-10-23 17:58:00,48.2,43.6,29.64,SSW,195,0.0,0.0,84,0.00,,,0.00,WUHU216DAVISWMX,2013-10-23 21:58:00,
2013-10-23 18:03:00,48.1,43.5,29.63,SSW,195,0.0,0.0,84,0.00,,,0.00,WUHU216DAVISWMX,2013-10-23 22:03:00,
2013-10-23 18:08:00,47.8,43.5,29.64,SSW,195,0.0,0.0,85,0.00,,,0.00,WUHU216DAVISWMX,2013-10-23 22:08:00,
2013-10-23 18:13:00,47.6,43.3,29.64,SSW,194,0.0,0.0,85,0.00,,,0.00,WUHU216DAVISWMX,2013-10-23 22:13:00,
2013-10-23 18:18:00,47.5,43.5,29.64,SSW,194,0.0,0.0,86,0.00,,,0.00,WUHU216DAVISWMX,2013-10-23 22:18:00,
2013-10-23 18:23:00,47.3,43.6,29.65,SSW,194,0.0,0.0,87,0.00,,,0.00,WUHU216DAVISWMX,2013-10-23 22:23:00,
2013-10-23 18:28:00,47.0,43.0,29.65,SSW,195,0.0,0.0,86,0.00,,,0.00,WUHU216DAVISWMX,2013-10-23 22:28:00,
2013-10-23 18:33:00,46.7,42.7,29.64,SSW,194,0.0,0.0,86,0.00,,,0.00,WUHU216DAVISWMX,2013-10-23 22:33:00,
2013-10-23 18:38:00,46.5,42.8,29.64,SSW,195,0.0,0.0,87,0.00,,,0.00,WUHU216DAVISWMX,2013-10-23 22:38:00,
2013-10-23 18:43:00,46.0,42.6,29.64,SSW,195,0.0,0.0,88,0.00,,,0.00,WUHU216DAVISWMX,2013-10-23 22:43:00,
2013-10-23 18:48:00,45.9,42.5,29.64,SSW,195,0.0,0.0,88,0.00,,,0.00,WUHU216DAVISWMX,2013-10-23 22:48:00,
2013-10-23 18:53:00,45.7,42.3,29.64,SSW,194,0.0,0.0,88,0.00,,,0.00,WUHU216DAVISWMX,2013-10-23 22:53:00,
2013-10-23 18:58:00,45.5,42.4,29.65,SSW,195,0.0,0.0,89,0.00,,,0.00,WUHU216DAVISWMX,2013-10-23 22:58:00,
2013-10-23 19:03:00,45.3,42.5,29.65,SSW,195,0.0,0.0,90,0.00,,,0.00,WUHU216DAVISWMX,2013-10-23 23:03:00,
2013-10-23 19:08:00,45.0,42.2,29.64,SSW,195,0.0,0.0,90,0.00,,,0.00,WUHU216DAVISWMX,2013-10-23 23:08:00,
2013-10-23 19:13:00,44.7,41.9,29.64,SSW,195,0.0,0.0,90,0.00,,,0.00,WUHU216DAVISWMX,2013-10-23 23:13:00,
2013-10-23 19:18:00,44.5,41.7,29.65,SSW,195,0.0,0.0,90,0.00,,,0.00,WUHU216DAVISWMX,2013-10-23 23:18:00,
2013-10-23 19:23:00,44.4,41.9,29.65,SSW,194,0.0,0.0,91,0.00,,,0.00,WUHU216DAVISWMX,2013-10-23 23:23:00,
2013-10-23 19:28:00,44.2,41.7,29.65,SSW,194,0.0,0.0,91,0.00,,,0.00,WUHU216DAVISWMX,2013-10-23 23:28:00,
2013-10-23 19:33:00,44.1,41.6,29.66,SSW,194,0.0,0.0,91,0.00,,,0.00,WUHU216DAVISWMX,2013-10-23 23:33:00,
2013-10-23 19:38:00,44.0,41.8,29.65,SSW,194,0.0,0.0,92,0.00,,,0.00,WUHU216DAVISWMX,2013-10-23 23:38:00,
2013-10-23 19:43:00,43.9,41.7,29.65,SSW,195,0.0,0.0,92,0.00,,,0.00,WUHU216DAVISWMX,2013-10-23 23:43:00,
2013-10-23 19:48:00,43.8,41.9,29.65,SSW,194,0.0,0.0,93,0.00,,,0.00,WUHU216DAVISWMX,2013-10-23 23:48:00,
2013-10-23 19:53:00,43.8,41.9,29.65,SSW,195,0.0,0.0,93,0.00,,,0.00,WUHU216DAVISWMX,2013-10-23 23:53:00,
2013-10-23 19:58:00,43.7,41.8,29.65,SSW,194,0.0,0.0,93,0.00,,,0.00,WUHU216DAVISWMX,2013-10-23 23:58:00,
2013-10-23 20:03:00,43.6,41.7,29.65,SSW,194,0.0,0.0,93,0.00,,,0.00,WUHU216DAVISWMX,2013-10-24 00:03:00,
2013-10-23 20:08:00,43.6,41.9,29.65,SSW,195,0.0,0.0,94,0.00,,,0.00,WUHU216DAVISWMX,2013-10-24 00:08:00,
2013-10-23 20:13:00,43.6,41.9,29.65,SSW,195,0.0,0.0,94,0.00,,,0.00,WUHU216DAVISWMX,2013-10-24 00:13:00,
2013-10-23 20:18:00,43.5,41.8,29.64,SSW,195,0.0,0.0,94,0.00,,,0.00,WUHU216DAVISWMX,2013-10-24 00:18:00,
2013-10-23 20:23:00,43.4,41.7,29.64,SSW,194,0.0,0.0,94,0.00,,,0.00,WUHU216DAVISWMX,2013-10-24 00:23:00,
2013-10-23 20:28:00,43.3,41.9,29.64,SSW,194,0.0,0.0,95,0.00,,,0.00,WUHU216DAVISWMX,2013-10-24 00:28:00,
2013-10-23 20:33:00,43.3,41.9,29.64,SSW,194,0.0,0.0,95,0.00,,,0.00,WUHU216DAVISWMX,2013-10-24 00:33:00,
2013-10-23 20:38:00,43.3,41.9,29.64,SSW,195,0.0,0.0,95,0.00,,,0.00,WUHU216DAVISWMX,2013-10-24 00:38:00,
2013-10-23 20:43:00,43.2,41.8,29.64,SSW,195,0.0,0.0,95,0.00,,,0.00,WUHU216DAVISWMX,2013-10-24 00:43:00,
2013-10-23 20:48:00,43.1,41.7,29.65,SSW,194,0.0,0.0,95,0.00,,,0.00,WUHU216DAVISWMX,2013-10-24 00:48:00,
2013-10-23 20:53:00,43.2,41.8,29.65,SSW,195,0.0,0.0,95,0.00,,,0.00,WUHU216DAVISWMX,2013-10-24 00:53:00,
2013-10-23 20:58:00,43.1,41.7,29.65,SSW,195,0.0,0.0,95,0.00,,,0.00,WUHU216DAVISWMX,2013-10-24 00:58:00,
2013-10-23 21:03:00,43.0,41.9,29.65,SSW,194,0.0,0.0,96,0.00,,,0.00,WUHU216DAVISWMX,2013-10-24 01:03:00,
2013-10-23 21:08:00,42.9,41.8,29.65,SSW,195,0.0,0.0,96,0.00,,,0.00,WUHU216DAVISWMX,2013-10-24 01:08:00,
2013-10-23 21:13:00,42.9,41.8,29.65,SSW,195,0.0,0.0,96,0.00,,,0.00,WUHU216DAVISWMX,2013-10-24 01:13:00,
2013-10-23 21:18:00,42.9,41.8,29.65,SSW,194,0.0,0.0,96,0.00,,,0.00,WUHU216DAVISWMX,2013-10-24 01:18:00,
2013-10-23 21:23:00,42.9,41.8,29.66,SSW,195,0.0,0.0,96,0.00,,,0.00,WUHU216DAVISWMX,2013-10-24 01:23:00,
2013-10-23 21:28:00,42.8,41.7,29.66,SSW,194,0.0,0.0,96,0.00,,,0.00,WUHU216DAVISWMX,2013-10-24 01:28:00,
2013-10-23 21:34:00,42.8,42.0,29.66,SSW,195,0.0,0.0,97,0.00,,,0.00,WUHU216DAVISWMX,2013-10-24 01:34:00,
2013-10-23 21:39:00,42.9,42.1,29.66,SSW,194,0.0,0.0,97,0.00,,,0.00,WUHU216DAVISWMX,2013-10-24 01:39:00,
2013-10-23 21:44:00,42.9,42.1,29.66,SSW,194,0.0,0.0,97,0.00,,,0.00,WUHU216DAVISWMX,2013-10-24 01:44:00,
2013-10-23 21:49:00,42.9,41.8,29.66,SSW,195,0.0,0.0,96,0.00,,,0.00,WUHU216DAVISWMX,2013-10-24 01:49:00,
2013-10-23 21:54:00,42.9,41.8,29.65,SSW,194,0.0,0.0,96,0.00,,,0.00,WUHU216DAVISWMX,2013-10-24 01:54:00,
2013-10-23 21:59:00,42.8,41.7,29.65,SSW,195,0.0,0.0,96,0.00,,,0.00,WUHU216DAVISWMX,2013-10-24 01:59:00,
2013-10-23 22:04:00,42.8,41.7,29.65,SSW,194,0.0,0.0,96,0.00,,,0.00,WUHU216DAVISWMX,2013-10-24 02:04:00,
2013-10-23 22:09:00,42.7,41.9,29.66,SSW,195,0.0,0.0,97,0.00,,,0.00,WUHU216DAVISWMX,2013-10-24 02:09:00,
2013-10-23 22:14:00,42.7,41.9,29.66,SSW,195,0.0,0.0,97,0.00,,,0.00,WUHU216DAVISWMX,2013-10-24 02:14:00,
2013-10-23 22:19:00,42.8,42.3,29.66,SSW,194,0.0,0.0,98,0.00,,,0.00,WUHU216DAVISWMX,2013-10-24 02:19:00,
2013-10-23 22:24:00,42.7,42.2,29.66,SSW,194,0.0,0.0,98,0.00,,,0.00,WUHU216DAVISWMX,2013-10-24 02:24:00,
2013-10-23 22:29:00,42.7,42.2,29.66,SSW,194,0.0,0.0,98,0.00,,,0.00,WUHU216DAVISWMX,2013-10-24 02:29:00,
2013-10-23 22:34:00,42.7,42.2,29.67,SSW,194,0.0,0.0,98,0.00,,,0.00,WUHU216DAVISWMX,2013-10-24 02:34:00,
2013-10-23 22:39:00,42.8,42.3,29.67,SSW,195,0.0,0.0,98,0.00,,,0.00,WUHU216DAVISWMX,2013-10-24 02:39:00,
2013-10-23 22:44:00,42.9,42.4,29.67,SSW,195,0.0,0.0,98,0.00,,,0.00,WUHU216DAVISWMX,2013-10-24 02:44:00,
2013-10-23 22:49:00,42.9,42.4,29.67,SSW,194,0.0,0.0,98,0.00,,,0.00,WUHU216DAVISWMX,2013-10-24 02:49:00,
2013-10-23 22:54:00,42.9,42.4,29.67,SSW,195,0.0,0.0,98,0.00,,,0.00,WUHU216DAVISWMX,2013-10-24 02:54:00,
2013-10-23 22:59:00,43.0,42.7,29.67,SSW,195,0.0,0.0,99,0.00,,,0.00,WUHU216DAVISWMX,2013-10-24 02:59:00,
2013-10-23 23:04:00,43.2,42.7,29.67,SSW,195,0.0,0.0,98,0.00,,,0.00,WUHU216DAVISWMX,2013-10-24 03:04:00,
2013-10-23 23:09:00,43.2,42.7,29.67,SSW,195,0.0,0.0,98,0.00,,,0.00,WUHU216DAVISWMX,2013-10-24 03:09:00,
2013-10-23 23:14:00,43.3,42.5,29.67,West,272,0.0,0.0,97,0.00,,,0.00,WUHU216DAVISWMX,2013-10-24 03:14:00,
2013-10-23 23:19:00,43.5,42.1,29.67,West,271,0.0,0.0,95,0.00,,,0.00,WUHU216DAVISWMX,2013-10-24 03:19:00,
2013-10-23 23:24:00,43.6,41.9,29.68,West,272,0.0,0.0,94,0.00,,,0.00,WUHU216DAVISWMX,2013-10-24 03:24:00,
2013-10-23 23:29:00,43.8,41.6,29.67,NW,312,0.0,0.0,92,0.00,,,0.00,WUHU216DAVISWMX,2013-10-24 03:29:00,
2013-10-23 23:34:00,43.9,41.7,29.68,NW,312,0.0,0.0,92,0.00,,,0.00,WUHU216DAVISWMX,2013-10-24 03:34:00,
2013-10-23 23:39:00,44.1,41.3,29.68,NW,312,0.0,0.0,90,0.00,,,0.00,WUHU216DAVISWMX,2013-10-24 03:39:00,
2013-10-23 23:44:00,44.1,41.3,29.68,NW,307,0.0,0.0,90,0.00,,,0.00,WUHU216DAVISWMX,2013-10-24 03:44:00,
2013-10-23 23:49:00,44.3,41.2,29.68,NW,307,0.0,0.0,89,0.00,,,0.00,WUHU216DAVISWMX,2013-10-24 03:49:00,
2013-10-23 23:54:00,44.4,41.3,29.68,WNW,283,0.0,0.0,89,0.00,,,0.00,WUHU216DAVISWMX,2013-10-24 03:54:00,
2013-10-23 23:59:00,44.5,41.1,29.68,NW,316,0.0,0.0,88,0.00,,,0.00,WUHU216DAVISWMX,2013-10-24 03:59:00,